Weather History for State College, PA

Change the Weather History Date:

Monday, February 25, 2013

  Actual Average Record
Temperature  
Mean Temperature 32 °F -  
Max Temperature 41 °F 40 °F 69 °F (1985)
Min Temperature 23 °F 23 °F 3 °F (1967)
Degree Days  
Heating Degree Days 33    
Moisture  
Dew Point 17 °F    
Average Humidity 56    
Maximum Humidity 74    
Minimum Humidity 36    
Precipitation  
Precipitation 0.00 in - - ()
Sea Level Pressure  
Sea Level Pressure 30.12 in    
Wind  
Wind Speed 5 mph (WNW)    
Max Wind Speed 9 mph    
Max Gust Speed 17 mph    
Visibility 10 miles    
Events      
Averages and records for this station are not official NWS values.
T = Trace of Precipitation, MM = Missing Value Source: NWS Daily Summary

Daily Weather History Graph

Daily Weather History Graph

Search for Another Location

Airport:

Trip Planner

Search our weather history database for the weather conditions in past years. The results will help you decide how hot, cold, wet, or windy it might be!

Date:

Astronomy

Feb. 25, 2013 Rise Set
Actual Time 6:51 AM EST 5:58 PM EST
Civil Twilight 6:23 AM EST 6:25 PM EST
Nautical Twilight 5:51 AM EST 6:57 PM EST
Astronomical Twilight 5:19 AM EST 7:29 PM EST
Moon 6:09 PM EST (2/25) 6:20 AM EST (2/25)
Length of Visible Light 12h 02m
Length of Day
11h 07m
Full, 100% of the Moon is Illuminated
Feb 25
Full
Feb 25
Full
Mar 4
Last Quarter
Mar 11
New
Mar 19
First Quarter

Hourly Weather History & Observations

Time (EST) Temp. Windchill Dew Point Humidity Pressure Visibility Wind Dir Wind Speed Gust Speed Precip Events Conditions
12:15 AM 29.1 °F 20.6 °F 15.3 °F 56% 30.07 in 10.0 mi WNW 9.2 mph 17.3 mph N/A   Overcast
12:35 AM 29.1 °F 20.6 °F 15.6 °F 57% 30.07 in 10.0 mi WNW 9.2 mph - N/A   Overcast
1:15 AM 28.8 °F 20.2 °F 14.9 °F 56% 30.08 in 10.0 mi WNW 9.2 mph - N/A   Scattered Clouds
1:35 AM 28.6 °F 22.4 °F 15.4 °F 58% 30.08 in 10.0 mi WNW 5.8 mph - N/A   Scattered Clouds
1:55 AM 29.1 °F 21.3 °F 15.6 °F 57% 30.08 in 10.0 mi WNW 8.1 mph - N/A   Overcast
2:15 AM 28.8 °F 20.9 °F 16.3 °F 60% 30.09 in 10.0 mi WNW 8.1 mph - N/A   Mostly Cloudy
2:35 AM 28.2 °F 20.2 °F 15.8 °F 60% 30.08 in 10.0 mi NW 8.1 mph - N/A   Scattered Clouds
2:55 AM 28.0 °F 22.8 °F 16.2 °F 61% 30.08 in 10.0 mi WNW 4.6 mph - N/A   Clear
3:15 AM 27.9 °F 21.5 °F 16.3 °F 62% 30.08 in 10.0 mi West 5.8 mph - N/A   Clear
3:35 AM 27.3 °F 20.9 °F 16.5 °F 64% 30.08 in 10.0 mi West 5.8 mph - N/A   Clear
3:55 AM 25.7 °F 21.5 °F 16.2 °F 67% 30.09 in 10.0 mi SW 3.5 mph - N/A   Clear
4:15 AM 25.9 °F 19.2 °F 16.7 °F 68% 30.09 in 10.0 mi West 5.8 mph - N/A   Clear
4:35 AM 26.6 °F 19.1 °F 17.1 °F 67% 30.09 in 10.0 mi WNW 6.9 mph - N/A   Clear
4:55 AM 26.4 °F 22.4 °F 17.1 °F 68% 30.10 in 10.0 mi WSW 3.5 mph - N/A   Clear
5:15 AM 25.9 °F 19.2 °F 17.2 °F 70% 30.10 in 10.0 mi West 5.8 mph - N/A   Clear
5:53 AM 23.0 °F - 15.8 °F 74% 30.12 in 10.0 mi Calm Calm - N/A   Clear
7:53 AM 26.6 °F 22.6 °F 19.4 °F 74% 30.15 in 10.0 mi West 3.5 mph - N/A   Clear
8:53 AM 30.2 °F - 19.4 °F 64% 30.17 in 10.0 mi Calm Calm - N/A   Clear
9:53 AM 32.0 °F - 19.4 °F 60% 30.16 in 10.0 mi Calm Calm - N/A   Partly Cloudy
10:53 AM 35.6 °F - 19.4 °F 52% 30.18 in 10.0 mi Calm Calm - N/A   Partly Cloudy
11:53 AM 37.4 °F - 17.6 °F 45% 30.17 in 10.0 mi Calm Calm - N/A   Partly Cloudy
12:53 PM 37.4 °F - 17.6 °F 45% 30.16 in 10.0 mi Calm Calm - N/A   Scattered Clouds
1:53 PM 41.0 °F - 17.6 °F 39% 30.14 in 10.0 mi Calm Calm - N/A   Scattered Clouds
2:53 PM 41.0 °F - 15.8 °F 36% 30.12 in 10.0 mi Calm Calm - N/A   Partly Cloudy
3:53 PM 41.0 °F - 17.6 °F 39% 30.12 in 10.0 mi Calm Calm - N/A   Partly Cloudy
4:53 PM 41.0 °F - 15.8 °F 36% 30.13 in 10.0 mi Calm Calm - N/A   Partly Cloudy
5:53 PM 39.2 °F - 15.8 °F 39% 30.13 in 10.0 mi Calm Calm - N/A   Partly Cloudy
6:53 PM 37.4 °F - 15.8 °F 41% 30.14 in 10.0 mi Calm Calm - N/A   Clear
7:53 PM 35.6 °F - 17.6 °F 48% 30.14 in 10.0 mi Calm Calm - N/A   Clear
8:53 PM 33.8 °F - 17.6 °F 52% 30.15 in 10.0 mi Calm Calm - N/A   Clear
9:55 PM 34.3 °F - 18.5 °F 52% 30.15 in 10.0 mi Calm Calm - N/A   Clear
10:15 PM 34.3 °F - 18.5 °F 52% 30.15 in 10.0 mi Calm Calm - N/A   Clear
10:55 PM 34.9 °F 29.9 °F 18.5 °F 51% 30.14 in 10.0 mi East 5.8 mph - N/A   Clear
11:15 PM 33.8 °F 27.7 °F 18.3 °F 53% 30.12 in 10.0 mi ENE 6.9 mph - N/A   Clear
11:35 PM 32.9 °F 29.8 °F 19.0 °F 57% 30.13 in 10.0 mi ENE 3.5 mph - N/A   Clear
11:55 PM 32.2 °F 27.7 °F 19.2 °F 59% 30.15 in 10.0 mi ENE 4.6 mph - N/A   Clear